Flag for Canada Weather past 2 weeks in Igloolik, Nunavut, Canada

Now
32 °F

Partly sunny.


Feels Like: 22 °F
Forecast: N/A
Wind: 14 mph from Northwest

Location: Hall Beach

Current Time: May 30, 2015 at 6:49:02 PM

Latest Report: May 30, 2015 at 6:00 PM


Visibility: 15 mi

Pressure: 29.67 "Hg

Humidity: 93%

Dew point: 30 °F

Location of IgloolikLocation

Historic Weather in Igloolik — Graph

°F

Igloolik temperature yesterday

Maximum temperature yesterday: 45 °F (at 8:00 AM)
Minimum temperature yesterday: 16 °F (at 4:03 AM)
Average temperature yesterday: 26 °F

Past Weeks' High & Low Weather Summary

 TemperatureHumidityPressure
High45 °F (May 29, 8:00 AM)100% (May 21, 10:02 PM)30.12 "Hg (May 21, 10:02 PM)
Low7 °F (May 18, 1:56 AM)74% (May 26, 10:00 AM)29.37 "Hg (May 25, 4:01 AM)
Average21 °F89%29.78 "Hg
* Reported May 15 5:00 PM — May 30 5:00 PM, Igloolik, Weather by CustomWeather, © 2015

Note: Actual official high and low records may vary slightly from our data, if they occured in-between our weather recording intervals... More about our weather records

Advertising

Igloolik weather history for previous 24 hours

 ConditionsComfort  
Time TempWeatherWind HumidityBarometerVisibility
5:00 PM
Sat, May 30
32 °FMostly cloudy.15 mph87%29.67 "Hg15 mi
4:00 PM32 °FMore clouds than sun.15 mph87%29.67 "Hg15 mi
3:00 PM32 °FMostly cloudy.12 mph87%29.67 "Hg15 mi
2:00 PM32 °FMostly cloudy.12 mph87%29.66 "Hg15 mi
1:48 PM32 °FMore clouds than sun.12 mph87%29.66 "Hg15 mi
1:00 PM32 °FSnow flurries. Mostly cloudy.15 mph87%29.66 "Hg10 mi
12:00 PM30 °FSnow flurries. Mostly cloudy.14 mph93%29.67 "Hg7 mi
11:00 AM30 °FOvercast.17 mph93%29.66 "Hg15 mi
10:00 AM30 °FScattered showers. Mostly cloudy.18 mph93%29.67 "Hg15 mi
9:00 AM30 °FMostly cloudy.22 mph93%29.68 "Hg12 mi
8:00 AM28 °FOvercast.16 mph93%29.69 "Hg12 mi
7:00 AM28 °FOvercast.18 mph93%29.69 "Hg9 mi
6:00 AM28 °FPartly sunny.21 mph93%29.69 "Hg9 mi
5:00 AM28 °FMore clouds than sun.21 mph93%29.69 "Hg9 mi
4:53 AM28 °FMore clouds than sun.18 mph93%29.69 "Hg9 mi
4:00 AM28 °FOvercast.17 mph93%29.70 "Hg9 mi
3:00 AM28 °FOvercast.21 mph93%29.70 "Hg9 mi
2:00 AM28 °FOvercast.18 mph93%29.71 "Hg9 mi
1:00 AM28 °FMostly cloudy.17 mph93%29.72 "Hg9 mi
12:00 AM28 °FOvercast.16 mph93%29.73 "Hg9 mi
11:00 PM
Fri, May 29
28 °FOvercast.18 mph93%29.75 "Hg9 mi
10:00 PM28 °FMostly cloudy.20 mph93%29.75 "Hg9 mi
9:00 PM30 °FOvercast.16 mph93%29.77 "Hg9 mi
8:00 PM30 °FOvercast.17 mph93%29.78 "Hg15 mi
7:00 PM30 °FOvercast.21 mph93%29.79 "Hg15 mi
6:00 PM30 °FMostly cloudy.23 mph93%29.80 "Hg15 mi
Weather by CustomWeather, © 2015

See weather overviewHow to use our weather pages